Weather History for Heber, UT

Change the Weather History Date:

Tuesday, February 12, 2013

  Actual Average (KPVU) Record (KPVU)
Temperature  
Mean Temperature 16 °F -  
Max Temperature 32 °F 38 °F 51 °F (1983)
Min Temperature 0 °F 23 °F 5 °F (2004)
Degree Days  
Heating Degree Days 49    
Moisture  
Dew Point 9 °F    
Average Humidity 76    
Maximum Humidity 92    
Minimum Humidity 48    
Precipitation  
Precipitation 0.00 in - - ()
Sea Level Pressure  
Sea Level Pressure 30.26 in    
Wind  
Wind Speed 1 mph (SW)    
Max Wind Speed 12 mph    
Max Gust Speed -    
Visibility 9 miles    
Events Snow    
Averages and records for this station are not official NWS values.
T = Trace of Precipitation, MM = Missing Value Source: NWS Daily Summary

Daily Weather History Graph

Daily Weather History Graph

Search for Another Location

Airport:

Trip Planner

Search our weather history database for the weather conditions in past years. The results will help you decide how hot, cold, wet, or windy it might be!

Date:

Astronomy

Feb. 12, 2013 Rise Set
Actual Time 7:22 AM MST 5:57 PM MST
Civil Twilight 6:54 AM MST 6:25 PM MST
Nautical Twilight 6:22 AM MST 6:57 PM MST
Astronomical Twilight 5:50 AM MST 7:29 PM MST
Moon 8:21 AM MST (2/12) 9:03 PM MST (2/12)
Length of Visible Light 11h 31m
Length of Day
10h 35m
Waxing Crescent, 8% of the Moon is Illuminated
Feb 12
Waxing Crescent
Feb 17
First Quarter
Feb 25
Full
Mar 4
Last Quarter
Mar 11
New

Hourly Weather History & Observations

Time (MST) Temp. Windchill Dew Point Humidity Pressure Visibility Wind Dir Wind Speed Gust Speed Precip Events Conditions
12:15 AM 3.2 °F - 1.4 °F 92% 30.18 in 10.0 mi Calm Calm - N/A   Scattered Clouds
12:35 AM 1.4 °F - -2.2 °F 85% 30.19 in 10.0 mi Calm Calm - N/A   Clear
12:55 AM 5.0 °F -2.1 °F 1.4 °F 85% 30.20 in 10.0 mi SE 3.5 mph - N/A   Mostly Cloudy
1:15 AM 8.6 °F - 5.0 °F 85% 30.20 in 10.0 mi Calm Calm - N/A   Overcast
1:35 AM 10.4 °F - 6.8 °F 85% 30.20 in 10.0 mi Calm Calm - N/A   Overcast
1:55 AM 10.4 °F - 6.8 °F 85% 30.20 in 10.0 mi Calm Calm - N/A   Overcast
2:15 AM 6.8 °F - 3.2 °F 85% 30.21 in 10.0 mi Calm Calm - N/A   Scattered Clouds
2:35 AM 3.2 °F - -0.4 °F 85% 30.22 in 10.0 mi Calm Calm - N/A   Clear
2:55 AM 5.0 °F - 1.4 °F 85% 30.22 in 10.0 mi Calm Calm - N/A   Clear
3:15 AM 1.4 °F -6.2 °F -2.2 °F 85% 30.22 in 10.0 mi SE 3.5 mph - N/A   Clear
3:35 AM 3.2 °F - -0.4 °F 85% 30.22 in 10.0 mi Calm Calm - N/A   Clear
3:55 AM 3.2 °F - -0.4 °F 85% 30.21 in 10.0 mi Calm Calm - N/A   Clear
4:15 AM -0.4 °F - -4.0 °F 85% 30.22 in 10.0 mi Calm Calm - N/A   Clear
4:35 AM -0.4 °F - -4.0 °F 85% 30.22 in 10.0 mi Calm Calm - N/A   Clear
5:15 AM -0.4 °F - -4.0 °F 85% 30.23 in 10.0 mi Calm Calm - N/A   Clear
5:35 AM -0.4 °F - -4.0 °F 85% 30.24 in 10.0 mi Calm Calm - N/A   Clear
5:55 AM 1.4 °F - -0.4 °F 92% 30.25 in 10.0 mi Calm Calm - N/A   Clear
6:15 AM 3.2 °F -4.2 °F -0.4 °F 85% 30.25 in 10.0 mi SSE 3.5 mph - N/A   Scattered Clouds
6:35 AM 1.4 °F - -4.0 °F 78% 30.25 in 10.0 mi Calm Calm - N/A   Mostly Cloudy
6:55 AM 3.2 °F - 1.4 °F 92% 30.26 in 10.0 mi Calm Calm - N/A   Overcast
7:15 AM 5.0 °F - 1.4 °F 85% 30.26 in 10.0 mi Calm Calm - N/A   Overcast
7:35 AM 5.0 °F - 3.2 °F 92% 30.27 in 10.0 mi Calm Calm - N/A   Overcast
7:55 AM 6.8 °F - 3.2 °F 85% 30.28 in 10.0 mi Calm Calm - N/A   Overcast
8:15 AM 5.0 °F - 3.2 °F 92% 30.28 in 5.0 mi Calm Calm - N/A   Overcast
8:35 AM 6.8 °F - 3.2 °F 85% 30.28 in 10.0 mi Calm Calm - N/A   Overcast
8:55 AM 6.8 °F - 3.2 °F 85% 30.29 in 7.0 mi Calm Calm - N/A   Overcast
9:15 AM 8.6 °F - 5.0 °F 85% 30.29 in 7.0 mi Calm Calm - N/A   Overcast
9:35 AM 10.4 °F - 5.0 °F 79% 30.30 in 7.0 mi Calm Calm - N/A   Overcast
9:55 AM 10.4 °F - 5.0 °F 79% 30.30 in 10.0 mi Calm Calm - N/A   Mostly Cloudy
10:15 AM 12.2 °F - 5.0 °F 73% 30.31 in 10.0 mi Calm Calm - N/A   Mostly Cloudy
10:35 AM 14.0 °F - 6.8 °F 73% 30.31 in 10.0 mi Calm Calm - N/A   Mostly Cloudy
10:55 AM 15.8 °F - 8.6 °F 73% 30.32 in 10.0 mi Calm Calm - N/A   Overcast
11:15 AM 17.6 °F - 6.8 °F 63% 30.32 in 10.0 mi Calm Calm - N/A   Mostly Cloudy
11:35 AM 19.4 °F - 8.6 °F 63% 30.31 in 10.0 mi Calm Calm - N/A   Scattered Clouds
11:55 AM 21.2 °F - 8.6 °F 58% 30.30 in 10.0 mi Calm Calm - N/A   Clear
12:15 PM 21.2 °F - 8.6 °F 58% 30.29 in 10.0 mi Calm Calm - N/A   Mostly Cloudy
12:35 PM 21.2 °F - 10.4 °F 63% 30.27 in 10.0 mi Calm Calm - N/A   Overcast
12:55 PM 23.0 °F - 10.4 °F 59% 30.27 in 10.0 mi Calm Calm - N/A   Overcast
1:15 PM 24.8 °F - 12.2 °F 59% 30.26 in 10.0 mi Calm Calm - N/A   Overcast
1:35 PM 26.6 °F - 12.2 °F 55% 30.26 in 10.0 mi Calm Calm - N/A   Overcast
1:55 PM 26.6 °F - 12.2 °F 55% 30.26 in 10.0 mi Calm Calm - N/A   Overcast
2:15 PM 26.6 °F - 12.2 °F 55% 30.25 in 10.0 mi Calm Calm - N/A   Overcast
2:35 PM 28.4 °F - 12.2 °F 51% 30.24 in 10.0 mi Calm Calm - N/A   Overcast
2:55 PM 28.4 °F - 14.0 °F 55% 30.24 in 10.0 mi Calm Calm - N/A   Overcast
3:15 PM 30.2 °F - 14.0 °F 51% 30.24 in 10.0 mi Calm Calm - N/A   Overcast
3:35 PM 30.2 °F - 14.0 °F 51% 30.24 in 10.0 mi Calm Calm - N/A   Overcast
3:55 PM 32.0 °F 28.7 °F 14.0 °F 48% 30.23 in 10.0 mi East 3.5 mph - N/A Snow Light Snow
4:15 PM 30.2 °F - 14.0 °F 51% 30.23 in 10.0 mi Calm Calm - N/A   Overcast
4:35 PM 30.2 °F - 14.0 °F 51% 30.23 in 10.0 mi Calm Calm - N/A   Overcast
4:55 PM 28.4 °F - 15.8 °F 59% 30.24 in 10.0 mi Calm Calm - N/A   Overcast
5:15 PM 28.4 °F 23.3 °F 17.6 °F 64% 30.25 in 10.0 mi WSW 4.6 mph - N/A   Overcast
5:35 PM 26.6 °F 19.1 °F 17.6 °F 69% 30.25 in 10.0 mi WSW 6.9 mph - N/A   Overcast
5:55 PM 26.6 °F 20.0 °F 19.4 °F 74% 30.25 in 10.0 mi WSW 5.8 mph - N/A   Overcast
6:15 PM 26.6 °F 19.1 °F 17.6 °F 69% 30.26 in 10.0 mi WSW 6.9 mph - N/A   Overcast
6:35 PM 26.6 °F 21.2 °F 19.4 °F 74% 30.26 in 10.0 mi SW 4.6 mph - N/A Snow Light Snow
7:15 PM 24.8 °F 16.9 °F 19.4 °F 80% 30.27 in 10.0 mi SW 6.9 mph - N/A Snow Light Snow
7:35 PM 24.8 °F 19.1 °F 19.4 °F 80% 30.27 in 7.0 mi SW 4.6 mph - N/A Snow Light Snow
7:55 PM 24.8 °F 15.3 °F 19.4 °F 80% 30.26 in 10.0 mi WSW 9.2 mph - N/A Snow Light Snow
8:15 PM 23.0 °F 11.7 °F 19.4 °F 86% 30.26 in 10.0 mi WSW 11.5 mph - N/A Snow Light Snow
8:35 PM 23.0 °F 12.4 °F 19.4 °F 86% 30.27 in 10.0 mi WSW 10.4 mph - N/A   Overcast
8:55 PM 23.0 °F 13.9 °F 19.4 °F 86% 30.27 in 10.0 mi WSW 8.1 mph - N/A   Overcast
9:15 PM 23.0 °F - 19.4 °F 86% 30.28 in 7.0 mi Calm Calm - N/A Snow Light Snow
9:35 PM 23.0 °F 18.4 °F 19.4 °F 86% 30.29 in 7.0 mi South 3.5 mph - N/A Snow Light Snow
9:55 PM 23.0 °F 14.7 °F 19.4 °F 86% 30.29 in 7.0 mi SW 6.9 mph - N/A Snow Light Snow
10:15 PM 24.8 °F 17.9 °F 19.4 °F 80% 30.30 in 5.0 mi SSW 5.8 mph - N/A Snow Light Snow
10:35 PM 23.0 °F 13.9 °F 19.4 °F 86% 30.29 in 5.0 mi SW 8.1 mph - N/A Snow Light Snow
10:55 PM 23.0 °F 15.8 °F 19.4 °F 86% 30.29 in 7.0 mi West 5.8 mph - N/A Snow Light Snow
11:15 PM 23.0 °F - 19.4 °F 86% 30.30 in 10.0 mi Calm Calm - N/A   Overcast
11:35 PM 23.0 °F - 19.4 °F 86% 30.30 in 7.0 mi Calm Calm - N/A Snow Light Snow
11:55 PM 23.0 °F 18.4 °F 19.4 °F 86% 30.30 in 7.0 mi West 3.5 mph - N/A Snow Light Snow